Location: Grums
(59.3529°N, 13.1129°E)
Time: 00:05:57
(UTC+01:00)

SEEDS - Pass Details

Date: 04 December 2021
Orbit: 584 x 600 km, 97.6° (Epoch: 27 January)

Event Time Altitude Azimuth Distance (km) Brightness Sun altitude
Rises 06:50:54 0° 10° (N) 2,830 ? -12.6°
Reaches altitude 10° 06:53:39 10° 351° (N) 1,924 ? -12.2°
Maximum altitude 06:56:22 17° 310° (NW) 1,504 ? -11.9°
Enters shadow 06:56:37 17° 305° (NW) 1,507 ? -11.9°
